Weather History for Kaiser, MO

Change the Weather History Date:

Wednesday, March 19, 2014

  Actual Average Record
Temperature  
Mean Temperature 45 °F -  
Max Temperature 55 °F 54 °F 78 °F (2012)
Min Temperature 33 °F 34 °F 24 °F (2013)
Degree Days  
Heating Degree Days 20    
Moisture  
Dew Point 29 °F    
Average Humidity 54    
Maximum Humidity 75    
Minimum Humidity 33    
Precipitation  
Precipitation 0.00 in - - ()
Sea Level Pressure  
Sea Level Pressure 29.98 in    
Wind  
Wind Speed 9 mph (West)    
Max Wind Speed 17 mph    
Max Gust Speed 26 mph    
Visibility 10 miles    
Events      
Averages and records for this station are not official NWS values.
T = Trace of Precipitation, MM = Missing Value Source: NWS Daily Summary

Daily Weather History Graph

Daily Weather History Graph

Search for Another Location

Airport:

Trip Planner

Search our weather history database for the weather conditions in past years. The results will help you decide how hot, cold, wet, or windy it might be!

Date:

Astronomy

Mar. 19, 2014 Rise Set
Actual Time 7:15 AM CDT 7:21 PM CDT
Civil Twilight 6:48 AM CDT 7:47 PM CDT
Nautical Twilight 6:18 AM CDT 8:18 PM CDT
Astronomical Twilight 5:47 AM CDT 8:49 PM CDT
Moon 10:36 PM CDT (3/19) 8:44 AM CDT (3/19)
Length of Visible Light 12h 58m
Length of Day
12h 06m
Waning Gibbous, 91% of the Moon is Illuminated
Mar 19
Waning Gibbous
Mar 23
Last Quarter
Mar 30
New
Apr 7
First Quarter
Apr 15
Full

Hourly Weather History & Observations

Time (CDT) Temp. Windchill Dew Point Humidity Pressure Visibility Wind Dir Wind Speed Gust Speed Precip Events Conditions
12:15 AM 55.4 °F - 39.2 °F 54% 29.66 in 10.0 mi West 3.5 mph - N/A   Scattered Clouds
12:35 AM 55.4 °F - 37.4 °F 51% 29.65 in 10.0 mi WSW 4.6 mph - N/A   Clear
12:55 AM 51.8 °F - 35.6 °F 54% 29.65 in 10.0 mi SSW 6.9 mph - N/A   Clear
1:15 AM 50.0 °F - 35.6 °F 58% 29.65 in 10.0 mi SSW 8.1 mph - N/A   Clear
1:35 AM 51.8 °F - 35.6 °F 54% 29.66 in 10.0 mi SW 6.9 mph - N/A   Clear
1:55 AM 53.6 °F - 35.6 °F 51% 29.67 in 10.0 mi SW 8.1 mph - N/A   Partly Cloudy
2:15 AM 53.6 °F - 35.6 °F 51% 29.68 in 10.0 mi SW 5.8 mph - N/A   Scattered Clouds
2:35 AM 51.8 °F - 35.6 °F 54% 29.69 in 10.0 mi WSW 9.2 mph - N/A   Overcast
2:55 AM 51.8 °F - 33.8 °F 50% 29.70 in 10.0 mi WSW 11.5 mph 19.6 mph N/A   Overcast
3:15 AM 50.0 °F - 33.8 °F 54% 29.71 in 10.0 mi WSW 17.3 mph 25.3 mph N/A   Overcast
3:35 AM 48.2 °F - 33.8 °F 58% 29.72 in 10.0 mi West 12.7 mph 26.5 mph N/A   Mostly Cloudy
3:55 AM 46.4 °F 40.1 °F 32.0 °F 57% 29.73 in 10.0 mi WSW 15.0 mph 21.9 mph N/A   Mostly Cloudy
4:15 AM 44.6 °F 37.2 °F 30.2 °F 57% 29.75 in 10.0 mi WSW 17.3 mph 23.0 mph N/A   Partly Cloudy
4:35 AM 42.8 °F 35.4 °F 30.2 °F 61% 29.76 in 10.0 mi West 15.0 mph 25.3 mph N/A   Clear
4:55 AM 42.8 °F 34.8 °F 30.2 °F 61% 29.78 in 10.0 mi West 17.3 mph 23.0 mph N/A   Clear
5:15 AM 42.8 °F 35.8 °F 30.2 °F 61% 29.79 in 10.0 mi West 13.8 mph - N/A   Mostly Cloudy
5:35 AM 42.8 °F 37.0 °F 30.2 °F 61% 29.81 in 10.0 mi West 10.4 mph 19.6 mph N/A   Overcast
5:55 AM 42.8 °F 37.0 °F 32.0 °F 66% 29.82 in 10.0 mi West 10.4 mph 17.3 mph N/A   Overcast
6:15 AM 42.8 °F 37.0 °F 32.0 °F 66% 29.83 in 10.0 mi West 10.4 mph 20.7 mph N/A   Overcast
6:35 AM 42.8 °F 36.2 °F 33.8 °F 70% 29.85 in 10.0 mi West 12.7 mph 19.6 mph N/A   Overcast
6:55 AM 42.8 °F 35.8 °F 33.8 °F 70% 29.87 in 8.0 mi West 13.8 mph 24.2 mph N/A   Overcast
7:15 AM 41.0 °F 34.3 °F 32.0 °F 70% 29.90 in 9.0 mi WNW 11.5 mph 23.0 mph N/A   Overcast
7:35 AM 39.2 °F 33.0 °F 32.0 °F 75% 29.92 in 8.0 mi WNW 9.2 mph 18.4 mph N/A   Overcast
7:55 AM 39.2 °F 31.6 °F 30.2 °F 70% 29.93 in 8.0 mi WNW 12.7 mph 24.2 mph N/A   Overcast
8:15 AM 39.2 °F 35.9 °F 30.2 °F 70% 29.95 in 7.0 mi NW 4.6 mph 19.6 mph N/A   Overcast
8:35 AM 39.2 °F 33.6 °F 30.2 °F 70% 29.96 in 8.0 mi NW 8.1 mph 20.7 mph N/A   Overcast
8:55 AM 39.2 °F 32.5 °F 30.2 °F 70% 29.98 in 7.0 mi WNW 10.4 mph 18.4 mph N/A   Overcast
9:15 AM 37.4 °F 30.8 °F 28.4 °F 70% 29.99 in 7.0 mi WNW 9.2 mph 18.4 mph N/A   Overcast
9:35 AM 37.4 °F 29.3 °F 28.4 °F 70% 30.01 in 7.0 mi WNW 12.7 mph 20.7 mph N/A   Overcast
9:55 AM 39.2 °F 32.5 °F 28.4 °F 65% 30.02 in 9.0 mi WNW 10.4 mph 17.3 mph N/A   Overcast
10:15 AM 39.2 °F 33.0 °F 28.4 °F 65% 30.04 in 9.0 mi WNW 9.2 mph 20.7 mph N/A   Overcast
10:35 AM 39.2 °F 32.0 °F 28.4 °F 65% 30.05 in 9.0 mi WNW 11.5 mph 19.6 mph N/A   Overcast
10:55 AM 39.2 °F 31.6 °F 28.4 °F 65% 30.06 in 9.0 mi WNW 12.7 mph 19.6 mph N/A   Overcast
11:15 AM 39.2 °F 32.5 °F 28.4 °F 65% 30.07 in 10.0 mi West 10.4 mph 18.4 mph N/A   Overcast
11:35 AM 41.0 °F 34.3 °F 28.4 °F 61% 30.08 in 10.0 mi West 11.5 mph 17.3 mph N/A   Overcast
11:55 AM 41.0 °F 33.9 °F 28.4 °F 61% 30.09 in 10.0 mi WNW 12.7 mph 19.6 mph N/A   Overcast
12:15 PM 42.8 °F 36.6 °F 28.4 °F 57% 30.09 in 10.0 mi WNW 11.5 mph 20.7 mph N/A   Overcast
12:35 PM 42.8 °F 35.4 °F 28.4 °F 57% 30.09 in 10.0 mi West 15.0 mph 20.7 mph N/A   Overcast
12:55 PM 42.8 °F 37.5 °F 28.4 °F 57% 30.11 in 10.0 mi NW 9.2 mph 17.3 mph N/A   Overcast
1:15 PM 42.8 °F 37.0 °F 28.4 °F 57% 30.11 in 10.0 mi West 10.4 mph 19.6 mph N/A   Overcast
1:35 PM 44.6 °F 39.2 °F 28.4 °F 53% 30.12 in 10.0 mi West 10.4 mph 20.7 mph N/A   Overcast
1:55 PM 44.6 °F 39.7 °F 28.4 °F 53% 30.11 in 10.0 mi West 9.2 mph 18.4 mph N/A   Overcast
2:15 PM 46.4 °F 40.4 °F 28.4 °F 50% 30.11 in 10.0 mi West 13.8 mph 19.6 mph N/A   Overcast
2:35 PM 46.4 °F 40.7 °F 30.2 °F 53% 30.10 in 10.0 mi West 12.7 mph 20.7 mph N/A   Overcast
2:55 PM 48.2 °F - 28.4 °F 46% 30.10 in 10.0 mi WNW 13.8 mph 18.4 mph N/A   Scattered Clouds
3:15 PM 48.2 °F - 28.4 °F 46% 30.10 in 10.0 mi West 11.5 mph 21.9 mph N/A   Clear
3:35 PM 50.0 °F - 26.6 °F 40% 30.10 in 10.0 mi WNW 11.5 mph 18.4 mph N/A   Clear
3:55 PM 51.8 °F - 26.6 °F 38% 30.10 in 10.0 mi West 10.4 mph 19.6 mph N/A   Clear
4:15 PM 51.8 °F - 26.6 °F 38% 30.09 in 10.0 mi West 15.0 mph 20.7 mph N/A   Clear
4:35 PM 51.8 °F - 28.4 °F 41% 30.09 in 10.0 mi West 8.1 mph - N/A   Clear
4:55 PM 51.8 °F - 26.6 °F 38% 30.10 in 10.0 mi West 10.4 mph 20.7 mph N/A   Clear
5:15 PM 53.6 °F - 26.6 °F 35% 30.09 in 10.0 mi West 12.7 mph - N/A   Clear
5:35 PM 53.6 °F - 26.6 °F 35% 30.09 in 10.0 mi WNW 12.7 mph - N/A   Clear
5:55 PM 53.6 °F - 26.6 °F 35% 30.09 in 10.0 mi West 10.4 mph - N/A   Clear
6:15 PM 53.6 °F - 24.8 °F 33% 30.09 in 10.0 mi WNW 9.2 mph - N/A   Clear
6:35 PM 51.8 °F - 24.8 °F 35% 30.10 in 10.0 mi West 8.1 mph - N/A   Clear
6:55 PM 51.8 °F - 24.8 °F 35% 30.10 in 10.0 mi West 9.2 mph - N/A   Clear
7:15 PM 51.8 °F - 24.8 °F 35% 30.11 in 10.0 mi WNW 6.9 mph - N/A   Clear
7:35 PM 50.0 °F - 24.8 °F 37% 30.11 in 10.0 mi West 6.9 mph - N/A   Clear
7:55 PM 48.2 °F - 24.8 °F 40% 30.12 in 10.0 mi West 6.9 mph - N/A   Clear
8:15 PM 48.2 °F - 24.8 °F 40% 30.12 in 10.0 mi West 4.6 mph - N/A   Clear
8:35 PM 46.4 °F - 24.8 °F 43% 30.13 in 10.0 mi Calm Calm - N/A   Clear
8:55 PM 44.6 °F 43.1 °F 24.8 °F 46% 30.14 in 10.0 mi West 3.5 mph - N/A   Clear
9:15 PM 44.6 °F - 24.8 °F 46% 30.15 in 10.0 mi Calm Calm - N/A   Clear
9:35 PM 42.8 °F - 26.6 °F 53% 30.15 in 10.0 mi Calm Calm - N/A   Clear
9:55 PM 42.8 °F - 24.8 °F 49% 30.16 in 10.0 mi Calm Calm - N/A   Clear
10:15 PM 39.2 °F - 24.8 °F 56% 30.16 in 10.0 mi Calm Calm - N/A   Clear
10:35 PM 37.4 °F - 24.8 °F 60% 30.17 in 10.0 mi Calm Calm - N/A   Clear
10:55 PM 39.2 °F - 24.8 °F 56% 30.17 in 10.0 mi Calm Calm - N/A   Clear
11:15 PM 35.6 °F - 24.8 °F 65% 30.17 in 10.0 mi Calm Calm - N/A   Clear
11:35 PM 37.4 °F - 23.0 °F 56% 30.17 in 10.0 mi Calm Calm - N/A   Clear
11:55 PM 33.8 °F - 24.8 °F 70% 30.17 in 10.0 mi Calm Calm - N/A   Clear